User: anonymous   Login
Location: Kawakawa
(35.3830°S, 174.0670°E)
Time: 16:17:57
(UTC+13:00)
Language:

Cosmos 1271 Rocket - Orbit

View from above orbital plane
View from above orbital plane
View from above satellite
View from above satellite

Ground track
Ground track

The orbit data is extracted from the following two-line orbital elements,

1 12465U 81046B   19320.87710775 -.00000073 +00000-0 -52842-5 0  9992
2 12465 081.2424 089.8927 0033205 249.5508 110.2154 15.14503923087956
Epoch (UTC): 16 November 2019 21:03:02
Eccentricity: 0.0033205
inclination: 81.2424°
perigee height: 499 km
apogee height: 545 km
right ascension of ascending node: 89.8927°
argument of perigee: 249.5508°
revolutions per day: 15.14503923
mean anomaly at epoch: 110.2154°
orbit number at epoch: 8795

The dashed part of the orbit path shows where the satellite is in the earth's shadow,  

DLR